www.pogodaiklimat.ru

Погода и климат >> Архив погоды >> Нигер >> Maine-Soroa


ПОГОДА в Maine-Soroa

  • Прогноз погоды в Maine-Soroa
  • Монитор погоды в Maine-Soroa
  • Климат города

АРХИВ ПОГОДЫ в Maine-Soroa

Время (UTC), дата Ветер
(напр.,м/с)
 
Видим.   Явления Облачность Т
(С)
Тd
(С)
f
(%)
Тe
(С)
Тes
(С)
Комфортность P
(гПа)
Po
(гПа)
Тmin
(С)
Tmax
(С)
R
(мм)
R24
(мм)
S
(см)
06 12.10 штиль 0 15 км 9/0
[Cs]
+23.0 +18.4 75 +29 +29 очень
душно
1009.7 972.3 +22.0
09 12.10 СЗ 2 15 км 9/0
[Cs]
+34.8 +15.5 32 +37 +48 очень
душно
1010.2 973.1
12 12.10 СВ 4 15 км 9/0
[Cs]
+39.5 +9.5 16 +38 +48 очень
жарко
1008.0 973.0
15 12.10 Ю 2 15 км 9/1 1200 м
[Sc Cs]
+39.0 +10.3 18 +38 +42 очень
жарко
1005.7 969.0
18 12.10 штиль 0 10 км 9/0
[Cs]
+32.7 +20.9 50 +40 +40 очень
душно
1007.5 970.2 +41.6
21 12.10 штиль 0 10 км 9/0
[Cs]
+29.5 +18.1 50 +34 +34 очень
душно
1007.9 971.1
00 13.10 штиль 0 10 км 9/0
[Cs]
+26.0 +15.6 53 +29 +29 душно 1007.7 970.9
03 13.10 З 2 10 км 9/0
[Cs]
+25.0 +19.2 70 +30 +30 душно 1007.8 970.9
06 13.10 ЮЗ 2 15 км 9/0
[Cs]
+24.3 +20.1 77 +30 +30 очень
душно
1010.2 972.8 +24.0
09 13.10 З 4 15 км 9/0
[Cs]
+31.2 +21.5 56 +39 +46 очень
душно
1011.0 973.8
15 13.10 З 2 15 км 9/3 1200 м
[Cb cap Cs]
+34.4 +19.9 43 +40 +43 очень
душно
1006.9 969.7
18 13.10 Ю 4 15 км 9/0
[Cs]
+31.4 +19.5 49 +37 +37 очень
душно
1009.1 971.6 +36.7
21 13.10 штиль 0 10 км 9/0
[Cs]
+28.6 +18.2 53 +33 +33 очень
душно
1010.0 972.8
00 14.10 З 2 10 км 9/0
[Cs]
+25.8 +17.6 61 +30 +30 душно 1010.1 973.0
06 14.10 СЗ 2 15 км 9/0
[Ac As Ci sp]
+24.0 +17.8 68 +28 +28 душно 1010.2 972.8 +23.0
09 14.10 З 4 15 км 9/0
[Ac trans Cs]
+33.0 +22.5 54 +42 +48 опасность
перегрева
1010.7 973.5
12 14.10 С 2 15 км 9/1 1500 м
[Cu hum Cs]
+38.0 +14.6 25 +39 +52 опасность
солнечного
удара
1008.6 971.6
15 14.10 В 6 15 км 9/1 1500 м
[Cb cap Ac As Ci sp]
+36.6 +13.3 25 +37 +38 очень
жарко
1006.5 969.4
18 14.10 Ю 4 10 км 9/0
[Ac As Ci sp]
+33.8 +10.6 24 +33 +33 жарко 1007.4 970.5 +40.2
21 14.10 ЮЗ 4 10 км 9/0
[Ac As Ci sp]
+28.6 +18.0 53 +33 +33 очень
душно
1009.7 972.6
00 15.10 штиль 0 10 км 9/0
[Cs]
+26.7 +18.8 62 +32 +32 очень
душно
1009.0 972.1
03 15.10 штиль 0 10 км 9/0
[Cs]
+24.6 +18.5 69 +29 +29 душно 1008.2 971.2
06 15.10 штиль 0 15 км 9/0
[Ac lent Cs]
+24.0 +19.1 74 +29 +29 душно 1010.8 973.5 +23.5
09 15.10 штиль 0 15 км 9/0
[Ac lent Cs]
+34.0 +18.2 39 +38 +51 опасность
солнечного
удара
1012.1 975.0
12 15.10 ЮВ 2 15 км 9/4 1200 м
[Cb cap Ci sp]
+37.5 +17.1 30 +40 +49 очень
душно
1010.0 973.1
15 15.10 ЮВ 2 15 км 9/3 1500 м
[Cb calv Cs]
+33.5 +17.2 38 +37 +40 очень
душно
1008.3 971.1
18 15.10 штиль 0 15 км 9/0
[Ac trans Cs]
+31.8 +17.4 42 +36 +36 очень
душно
1008.4 971.0 +40.0
21 15.10 штиль 0 10 км 9/0
[Cs]
+27.4 +16.6 52 +31 +31 душно 1009.7 972.8
00 16.10 штиль 0 10 км 9/0
[Cs]
+26.5 +17.1 56 +30 +30 душно 1010.7 973.6
03 16.10 штиль 0 10 км 9/0
[Cs]
+25.5 +16.8 59 +29 +29 душно 1010.2 973.0
06 16.10 штиль 0 15 км 9/0
[Cs]
+24.2 +17.6 67 +28 +29 душно 1012.0 974.5 +22.2
09 16.10 Ю 4 15 км 9/0
[Cs]
+36.0 +15.9 30 +38 +45 очень
душно
1012.0 975.0
12 16.10 В 4 15 км 9/0
[Cs]
+39.0 +12.9 21 +39 +49 очень
жарко
1009.0 972.2
15 16.10 В 4 15 км 9/0
[Cs]
+39.0 +11.3 19 +38 +41 очень
жарко
1007.7 970.9
18 16.10 штиль 0 10 км 9/0
[Cs]
+33.0 +13.7 31 +34 +34 очень
жарко
1008.4 971.0 +40.6
21 16.10 штиль 0 10 км 9/0
[Cs]
+28.2 +14.2 42 +30 +30 жарко 1009.6 972.7
00 17.10 СВ 2 10 км 9/0
[Cs]
+25.6 +12.8 45 +27 +27 жарко 1009.1 972.2
03 17.10 СВ 2 10 км 9/0
[Cs]
+24.4 +11.7 45 +26 +26 жарко 1008.7 971.3
06 17.10 СВ 2 15 км 9/0
[Cs]
+23.8 +11.0 45 +25 +26 комфорт 1010.5 973.1 +23.2
09 17.10 В 6 15 км 8/0
[Cs]
+36.0 +5.3 15 +33 +38 жарко 1011.2 974.2
12 17.10 В 8 15 км 9/0
[Cs]
+39.6 +7.8 15 +37 +40 очень
жарко
1007.9 971.1
15 17.10 В 6 15 км 9/0
[Cs]
+39.0 +11.9 20 +38 +40 очень
жарко
1005.3 968.5
18 17.10 В 2 15 км 9/0
[Cs]
+33.6 +12.8 28 +34 +34 очень
жарко
1006.6 969.3 +41.0
21 17.10 ЮВ 2 10 км 9/0
[Cs]
+29.6 +11.8 33 +30 +30 жарко 1008.7 971.9
00 18.10 штиль 0 10 км 9/0
[Cs]
+25.0 +6.6 31 +25 +25 комфорт 1007.4 970.6
03 18.10 штиль 0 10 км 9/0
[Cs]
+22.0 +9.7 46 +24 +24 комфорт 1008.5 971.4
06 18.10 штиль 0 15 км 9/0
[Cs]
+20.6 +10.6 53 +22 +23 комфорт 1010.0 972.4 +20.0
09 18.10 ЮЗ 2 15 км 9/0
[Cs]
+35.4 +11.8 24 +35 +45 очень
жарко
1009.8 972.9
12 18.10 В 4 15 км 9/0
[Cs]
+13.9 +17.2 100 +12 +22 1007.4 970.5
15 18.10 В 4 15 км 9/0
[Cs]
+37.2 +12.1 22 +34 +37 очень
жарко
1005.0 968.0
18 18.10 В 4 10 км 9/0
[Cs]
+32.5 +6.3 19 +30 +30 жарко 1006.5 969.0 +40.6
21 18.10 штиль 0 10 км 9/0
[Cs]
+27.0 +9.8 34 +27 +27 жарко 1007.8 970.8
00 19.10 С 4 10 км 9/0
[Cs]
+24.0 +8.7 38 +25 +25 комфорт 1007.3 970.4
03 19.10 С 2 10 км 6/0
[Ci sp]
+20.4 +13.2 63 +23 +23 комфорт 1008.0 970.8

 

Местоположение метеостанции Maine-Soroa (Нигер): широта 13.23 долгота 11.98 высота над уровнем моря 337 м.

В архиве по умолчанию представлена погода в Maine-Soroa за последнюю неделю. Архивные данные за месяц целиком и за предыдущие месяцы, начиная с января 2011 года, Вы можете получить, выбрав интересующий диапазон дат из раскрывающегося списка и нажав кнопку "Ввод!".


*Определитесь, кто Вы:
робот инопланетянин человек

Внимание! Время в таблицах - всемирное. Для получения местного времени необходимо прибавить поправку, которая в Maine-Soroa равна 1 ч.

Смотрите также архив погоды в соседних городах и на ближайших метеорологических станциях:

Погода в Diffa (Нигер) (89 км)
Погода в Nguigmi (Нигер) (167 км)
Погода в Goure (Нигер) (200 км)
Погода в Bol-Berim (Чад) (300 км)
Погода в Zinder (Нигер) (330 км)
Погода в Magaria (Нигер) (332 км)
Погода в Ndjamena (Чад) (353 км)
Погода в Mao (Чад) (377 км)
Погода в Cano (Нигерия) (397 км)
Погода в Yola (Нигерия) (448 км)

Пояснения к столбцам:

Ветер - указаны скорость ветра в м/с - средняя за 10 мин, порывы в срок и между сроками (в фигурных скобках) и направление, откуда дует ветер: С - северный, СВ - северо-восточный, В - восточный, ЮВ - юго-восточный, Ю - южный, ЮЗ - юго-западный, З - западный, СЗ - северо-западный.
Видимость - горизонтальная дальность видимости в метрах или километрах. При видимости от 1 до 10 км при отсутствии осадков обычно наблюдается дымка, при ухудшении видимости до 1 км и менее - туман. В сухую погоду видимость может ухудшаться дымом, пылью или мглою.
Явления - указаны атмосферные явления, наблюдавшиеся в срок или в последний час перед сроком; фигурными скобками обозначены явления, наблюдавшиеся между сроками (за 1-3 часа до срока); квадратными скобками обозначены град или гололедные отложения с указанием их диаметра в мм.
Облачность - указаны через наклонную черту общая и нижняя облачность в баллах и высота нижней границы облаков в метрах; квадратными скобками обозначены формы облаков: Ci - перистые, Cs - перисто-слоистые, Cc - перисто-кучевые, Ac - высококучевые, As - высокослоистые, Sc - слоисто-кучевые, Ns - слоисто-дождевые, Cu - кучевые, Cb - кучево-дождевые. Подробнее классификацию облаков см. в Атласе облаков (PDF).
T - Температура воздуха - температура, измеренная на высоте 2 м над землей.
Td - Температура точки росы - температура, при понижении до которой содержащийся в воздухе водяной пар достигнет насыщения.
f - Относительная влажность воздуха - влажноcть воздуха, измеренная на высоте 2 м над землей.
Te - Эффективная температура - температура, которую ощущает одетый по сезону человек в тени. Характеристика душности погоды. При расчете учитывается влияние влажности воздуха и скорости ветра на теплоощущения человека.
Tes - Эффективная температура на солнце - температура, которую ощущает человек, с поправкой на солнечный нагрев. Характеристика знойности погоды. Зависит от высоты солнца над горизонтом, облачности и скорости ветра. Ночью, в пасмурную погоду, а также при ветре 12 м/с и более поправка равна нулю.
P - Атмосферное давление - приведенное к уровню моря атмосферное давление.
Po - Атмосферное давление - измеренное на уровне метеостанции атмосферное давление.
Tmin - Минимальная температура - минимум температуры воздуха на высоте 2 м над землей.
Tmax - Максимальная температура - максимум температуры воздуха на высоте 2 м над землей.
R - Количество осадков - Количество выпавших осадков за период времени, мм. При наведении курсора мыши на число - период времени, за который выпало указанное количество осадков.
R24 - Количество осадков - Количество выпавших осадков за 24 часа, мм.
S - Снежный покров - Высота снежного покрова, см. При наведении курсора мыши на число - состояние снежного покрова и степень покрытия местности в баллах.